Torreon, Mexico

4:49 AM CST on February 23, 2017 (GMT -0600)
Torreon International

Weather History for MMTC - March, 2013

Change the Weather History Date:

Monday, March 25, 2013

  Actual Average Record
Temperature  
Mean Temperature 68 °F -  
Max Temperature 83 °F 87 °F 93 °F (1998)
Min Temperature 52 °F 61 °F 52 °F (2013)
Cooling Degree Days 2    
Growing Degree Days 18 (Base 50)    
Moisture  
Dew Point 26 °F    
Average Humidity 22    
Maximum Humidity 35    
Minimum Humidity 13    
Precipitation  
Precipitation 0.00 in - - ()
Sea Level Pressure  
Sea Level Pressure 29.95 in    
Wind  
Wind Speed 4 mph ()    
Max Wind Speed 13 mph    
Max Gust Speed -    
Visibility 9.7 miles    
Events      
Averages and records for this station are not official NWS values.
T = Trace of Precipitation, MM = Missing Value Source: Averaged Metar Reports

Daily Weather History Graph

Daily Weather History Graph

Search for Another Location

Airport or City:

Trip Planner

Search our weather history database for the weather conditions in past years. The results will help you decide how hot, cold, wet, or windy it might be!

Date:

Astronomy

Mar. 25, 2013 Rise Set
Actual Time 6:52 AM CST 7:07 PM CST
Civil Twilight 6:29 AM CST 7:30 PM CST
Nautical Twilight 6:02 AM CST 7:57 PM CST
Astronomical Twilight 5:35 AM CST 8:24 PM CST
Moon 5:46 PM CST (3/25) 5:28 AM CST (3/25)
Length of Visible Light 13h 01m
Length of Day
12h 15m
Waxing Gibbous, 97% of the Moon is Illuminated
Mar 25
Waxing Gibbous
Mar 27
Full
Apr 2
Last Quarter
Apr 10
New
Apr 18
First Quarter

Hourly Weather History & Observations

Time (CST) Temp. Dew Point Humidity Pressure Visibility Wind Dir Wind Speed Gust Speed Precip Events Conditions
2:53 AM 59 °F 34 °F 27% 29.75 in 6 mi NNE 4.5 mph - -   Clear
5:42 AM 50.0 °F 17.6 °F 28% 29.84 in 10.0 mi Calm Calm - N/A   Clear
5:54 AM 55 °F 33 °F 30% 29.86 in 6 mi ESE 4.5 mph - -   Clear
6:56 AM 51.8 °F 15.8 °F 24% 30.04 in 10.0 mi Calm Calm - N/A   Clear
7:40 AM 51.8 °F 15.8 °F 24% 30.06 in 8.0 mi Calm Calm - N/A   Clear
8:46 AM 56 °F 29 °F 24% 29.98 in 19 mi NNE 6.7 mph - -  
8:48 AM 57.2 °F 19.4 °F 23% 29.94 in 8.0 mi Calm Calm - N/A   Clear
9:45 AM 59.0 °F 19.4 °F 22% 30.11 in 8.0 mi NE 6.9 mph - N/A   Clear
10:40 AM 62.6 °F 19.4 °F 19% 30.11 in 8.0 mi East 5.8 mph - N/A   Clear
11:40 AM 64.4 °F 19.4 °F 18% 29.95 in 8.0 mi Calm Calm - N/A   Clear
11:46 AM 71 °F 44 °F 26% 29.99 in 19 mi NNE 2.2 mph - -  
12:40 PM 68.0 °F 21.2 °F 17% 30.07 in 8.0 mi North 6.9 mph - N/A   Clear
1:49 PM 71.6 °F 21.2 °F 15% 30.02 in 8.0 mi North 6.9 mph - N/A   Scattered Clouds
2:45 PM 78 °F 43 °F 18% 29.85 in 19 mi NE 4.5 mph - -   Partly Cloudy
2:46 PM 73.4 °F 23.0 °F 15% 29.82 in 8.0 mi North 4.6 mph - N/A   Scattered Clouds
3:42 PM 75.2 °F 23.0 °F 14% 29.97 in 8.0 mi North 11.5 mph - N/A   Scattered Clouds
4:40 PM 75.2 °F 24.8 °F 15% 29.95 in 8.0 mi NNE 8.1 mph - N/A   Scattered Clouds
5:45 PM 77 °F 44 °F 20% 29.78 in 19 mi NE 4.5 mph - -   Partly Cloudy
5:48 PM 75.2 °F 21.2 °F 13% 29.80 in 8.0 mi ENE 5.8 mph - N/A   Scattered Clouds
6:48 PM 71.6 °F 21.2 °F 15% 29.96 in 10.0 mi ENE 12.7 mph - N/A   Scattered Clouds
7:40 PM 68.0 °F 21.2 °F 17% 29.98 in 10.0 mi NNE 9.2 mph - N/A   Scattered Clouds
8:43 PM 64.4 °F 23.0 °F 21% 29.89 in 10.0 mi NNE 9.2 mph - N/A   Clear
8:54 PM 67 °F 40 °F 26% 29.82 in 6 mi ESE 4.5 mph - -  
9:47 PM 62.6 °F 24.8 °F 24% 30.06 in 10.0 mi NE 5.8 mph - N/A   Clear
10:42 PM 59.0 °F 26.6 °F 29% 30.09 in 4.0 mi East 11.5 mph - N/A   Clear
11:56 PM 58 °F 38 °F 35% 29.93 in 6 mi ENE 4.5 mph - -   Mostly Cloudy